{"data":{"norad_id":52577,"epoch":"2026-09-20T04:54:14.385024Z","epoch_age_seconds":88824,"freshness":"FRESH","line1":"1 52577U 22051AT  26263.20433316  .00000303  00000+0  20095-4 0  9992","line2":"2 52577  53.1589 324.7483 0001147  79.0251 281.0881 15.34390345240963","mean_motion":15.34390345,"eccentricity":0.0001147,"inclination_deg":53.1589,"raan_deg":324.7483,"arg_perigee_deg":79.0251,"mean_anomaly_deg":281.0881,"bstar":2.0095e-5,"rev_number":24096,"period_min":93.848348609102,"perigee_km":461.9472893852,"apogee_km":463.51658471936,"semimajor_km":6840.8689370523,"source":"CELESTRAK","updated_at":"2026-09-20T09:00:40.065065Z"}}